Weather Roundup
Issued by NWS

Home | Current Version | Previous Version | Graphics & Text | Print | Product List | Glossary Off
Versions: 1 2 3 4 5 6 7 8 9 10 11 12 13 14 15 16 17 18 19 20 21 22 23 24 25 26 27 28 29 30 31 32 33 34 35 36 37 38 39 40 41 42 43 44 45 46 47 48 49 50

000
NZUS93 KARX 211410
HRRWXR

CURRENT HOURLY OBSERVATIONS ACROSS
MUCH OF THE UPPER MISSISSIPPI VALLEY
NATIONAL WEATHER SERVICE LA CROSSE WI
900 AM CDT TUE OCT 21 2014


...SOUTHEAST MINNESOTA...


CITY           SKY/WX    TMP DP  RH WIND       PRES   REMARKS
ROCHESTER      MOSUNNY   42  39  89 E8        30.20R
ROCHESTER/MAYO FAIR      41  35  78 CALM      30.20R
WINONA         CLOUDY    39  39 100 CALM      30.22S VSB<1/4
AUSTIN         MOSUNNY   43  39  87 E3        30.18R
ALBERT LEA     SUNNY     41  39  93 CALM      30.18R
DODGE CENTER   MOSUNNY   43  41  93 E6        30.19R
PRESTON        SUNNY     41  38  89 E6        30.20R
OWATONNA       SUNNY     43  39  87 E7        30.18R
FARIBAULT      SUNNY     41  39  93 E5        30.19R
$$

...ELSEWHERE IN MINNESOTA...


CITY           SKY/WX    TMP DP  RH WIND       PRES   REMARKS
MINNEAPOLIS    SUNNY     43  39  86 E6        30.21R
INTNL FALLS    MOSUNNY   39  34  82 SE7       30.18R WCI  34
DULUTH         CLOUDY    42  34  73 E13       30.21R
RED WING       SUNNY     43  41  93 E5        30.21R
REDWOOD FALLS  SUNNY     42  38  85 E9        30.13S
MANKATO        MOSUNNY   45  37  76 E10       30.17R
WORTHINGTON    MOSUNNY   45  39  81 SE5       30.13S
FAIRMONT       MOSUNNY   39  36  87 SE7       30.15R WCI  34
$$

...SOUTHWEST WISCONSIN...


CITY           SKY/WX    TMP DP  RH WIND       PRES   REMARKS
LA CROSSE      SUNNY     44  39  82 CALM      30.22R
PRAIRIE DU CHI FOG       39  38  95 CALM      30.21R VSB<1/4
BOSCOBEL       FOG       38  36  92 CALM      30.22R VSB 1/4
LONE ROCK      SUNNY     48  37  65 E8        30.22R
PLATTEVILLE    SUNNY     45  40  83 NE10G16   30.20R
FORT MC COY    SUNNY     36  35  94 CALM      30.22S
CAMP DOUGLAS   PTSUNNY   41  41 100 NE2       30.22R
VIROQUA        FAIR      42  40  93 E6        30.20R
WIS DELLS      CLOUDY    41  36  80 NE5       30.21R
$$

...ELSEWHERE IN WISCONSIN...


CITY           SKY/WX    TMP DP  RH WIND       PRES   REMARKS
MILWAUKEE      PTSUNNY   47  39  74 N10       30.16R
MADISON        PTSUNNY   43  37  79 N6        30.21R
GREEN BAY      CLOUDY    44  38  79 N12       30.21R
EAU CLAIRE     PTSUNNY   41  37  86 E5        30.22R
BLACK RVR FLS  FAIR      36  36 100 CALM      30.22R
MEDFORD        CLOUDY    40  34  79 E10       30.21R WCI  34
WAUSAU         CLOUDY    42  34  73 NE6       30.21R
WIS RAPIDS     CLOUDY    43  35  73 E9        30.23R
MARSHFIELD     CLOUDY    42  35  76 NE10      30.21R
RICE LAKE      MOSUNNY   43  34  71 NE6       30.23R
$$

...NORTHEAST IOWA...


CITY           SKY/WX    TMP DP  RH WIND       PRES   REMARKS
DECORAH        SUNNY     43  41  93 E3        30.19R
MASON CITY     SUNNY     41  39  93 E6        30.19R
CHARLES CITY   SUNNY     43  39  87 E6        30.19R
OELWEIN        SUNNY     41  39  93 NE5       30.19R
$$

...ELSEWHERE IN IOWA...


CITY           SKY/WX    TMP DP  RH WIND       PRES   REMARKS
DES MOINES     SUNNY     48  41  76 E5        30.15R
IOWA CITY      SUNNY     48  42  80 NE6       30.20R
FORT DODGE     SUNNY     39  37  93 CALM      30.16R
$$

...NORTHERN ILLINOIS...


CITY           SKY/WX    TMP DP  RH WIND       PRES   REMARKS
CHICAGO-OHARE  PTSUNNY   47  39  74 N13       30.14R
CHICAGO-MIDWAY MOSUNNY   51  39  63 N13       30.13R
MOLINE         SUNNY     47  42  83 CALM      30.18R
ROCKFORD       MOSUNNY   48  37  65 N15       30.19R
PEORIA         SUNNY     49  41  74 N5        30.16R
$$

NOTE: "FAIR" INDICATES FEW OR NO CLOUDS BELOW 12,000 FEET WITH NO
SIGNIFICANT WEATHER AND/OR OBSTRUCTIONS TO VISIBILITY. WIND
SPEEDS ARE IN MILES-PER-HOUR.



USA.gov is the U.S. government's official web portal to all federal, state and local government web resources and services.